Regional Weather Roundup
Issued by NWS

Home | Current Version | Previous Version | Text Only | Print | Product List | Glossary Off
Versions: 1 2 3 4 5 6 7 8 9 10 11 12 13 14 15 16 17 18 19 20 21 22 23 24 25 26 27 28 29 30 31 32 33 34 35 36 37 38 39 40 41 42 43 44 45 46 47 48 49 50

000
ASUS45 KBOU 051607
RWRCO

WEATHER ROUNDUP FOR COLORADO
NATIONAL WEATHER SERVICE DENVER/BOULDER CO
1000 AM MDT TUE MAY 05 2015

NOTE: "FAIR" INDICATES FEW OR NO CLOUDS BELOW 12000 FEET WITH NO
SIGNIFICANT WEATHER AND/OR OBSTRUCTIONS TO VISIBILITY.

COZ001>005-013-030-031-051700-
...NORTHWEST COLORADO...

CITY           SKY/WX    TMP DP  RH WIND       PRES   REMARKS
CRAIG          SUNNY     55  39  54 CALM      29.91F
HAYDEN         NOT AVBL
MEEKER         SUNNY     56  39  53 CALM      29.90F
MOUNT WERNER   NOT AVBL
STEAMBOAT SPGS SUNNY     52  37  57 CALM      29.92F
WALDEN         SUNNY     46  37  71 NW3       29.98F
$$

COZ006>008-011-051700-
...WEST CENTRAL VALLEYS...

CITY           SKY/WX    TMP DP  RH WIND       PRES   REMARKS
GRAND JUNCTION PTSUNNY   60  44  55 NW7       29.85F
MONTROSE       LGT RAIN  54  45  71 CALM      29.90F
EAGLE          MOSUNNY   52  39  62 CALM      29.93F
RIFLE          MOSUNNY   57  42  57 W3        29.87F
DELTA          CLOUDY    57  47  70 CALM      29.88S
NUCLA          LGT RAIN  50  46  87 SW3       29.95F
$$

COZ017>023-064>068-051700-
...SOUTHWEST COLORADO...

CITY           SKY/WX    TMP DP  RH WIND       PRES   REMARKS
DURANGO        CLOUDY    47  43  86 N5        29.94S
CORTEZ         LGT RAIN  49  45  86 CALM      29.94F
PAGOSA SPRINGS CLOUDY    45  43  92 CALM      29.98F
TELLURIDE      RAIN      40  39  95 CALM      30.01S
WOLF CREEK PAS NOT AVBL
$$

COZ009-010-012-014-032>034-037-058>063-051700-
...CENTRAL COLORADO...

CITY           SKY/WX    TMP DP  RH WIND       PRES   REMARKS
ASPEN          MOSUNNY   51  39  63 N7        29.92F
BUENA VISTA    NOT AVBL
COPPER MTN     MOSUNNY   41  27  56 S10G16    30.12F
BERTHOUD PASS  HAZE      28  19  69 E13G26    30.16S VSB<1/4 WCI  18
COTTONWOOD PAS CLOUDY    43  39  87 CALM      30.05F
GUNNISON       CLOUDY    48  37  66 CALM      29.98S
KREMMLING      PTSUNNY   43  37  81 CALM      29.97F
LEADVILLE      PTSUNNY   40  35  83 S8        30.03F
MONARCH PASS   CLOUDY    32  30  93 MISG      30.17F
SALIDA         CLOUDY    46  44  91 CALM      30.05F
SUNLIGHT       CLOUDY    43  34  70 CALM      30.10S
WILKERSON PASS FOG       34  32  93 SE3       30.14S VSB 3/4
$$

COZ069>075-051700-
...SAN LUIS VALLEY/SANGRE DE CRISTO MOUNTAINS...

CITY           SKY/WX    TMP DP  RH WIND       PRES   REMARKS
ALAMOSA        LGT RAIN  43  40  89 SW12      29.96S
LA VETA PASS   FOG       37  36  93 MISG      30.03F VSB<1/4
SAGUACHE       DRIZZLE   45  43  93 S5        29.97S
$$

COZ035-036-038>040-051700-
...NORTHERN COLORADO FRONT RANGE...

CITY           SKY/WX    TMP DP  RH WIND       PRES   REMARKS
DENVER INTL AP CLOUDY    54  49  83 SE9       29.96S
DMNS CITY PARK   N/A     53  48  86 N3        29.96S
AURORA         NOT AVBL
FRONT RANGE AP CLOUDY    55  50  82 SE14      29.97F
ERIE MUNI ARPT LGT RAIN  50  49  96 NE5       29.96F
BOULDER MUN AP CLOUDY    50  50 100 N3        29.96F FOG
CENTENNIAL     LGT RAIN  49  48  97 NW5       29.97S FOG
BROOMFIELD     CLOUDY    50  50 100 CALM      29.98S FOG
FORT COLLINS   CLOUDY    48  46  93 SE6       29.99S
LONGMONT       FOG       51  50  94 CALM      29.98F VSB 1/2
$$

COZ041-046-047-076>085-087-088-051700-
...PIKES PEAK/PALMER DIVIDE AND SOUTHERN FOOTHILLS...

CITY           SKY/WX    TMP DP  RH WIND       PRES   REMARKS
COLO. SPRINGS  LGT RAIN  48  47  96 E10       29.97F FOG
A. F. ACADEMY  LGT RAIN  48  48 100 E9        29.97F
ELLICOTT       LGT RAIN N/A N/A N/A E14       29.96S
FALCON         RAIN      46  46 100 E12       30.00F
FORT CARSON    NOT AVBL
LIMON          CLOUDY    48  48 100 E12       29.98F FOG
MONUMENT HILL  CLOUDY    45  45 100 E8        29.99S
TRINIDAD       LGT RAIN  52  49  89 E7        29.90F
$$

COZ042>045-048>051-090-091-051700-
...NORTHEAST COLORADO...

CITY           SKY/WX    TMP DP  RH WIND       PRES   REMARKS
GREELEY ARPT   CLOUDY    52  45  76 E7        29.98F
AKRON          FOG       48  48 100 E9        29.99S VSB 1/4
BURLINGTON     LGT RAIN  55  52  89 E12       29.97F
WRAY           CLOUDY   N/A N/A N/A E9        30.00F FOG
STERLING       CLOUDY    50  48  93 NE3       29.98F
HOLYOKE        NOT AVBL
FORT MORGAN    CLOUDY    50  47  89 E10       29.99S
$$

COZ086-089-092>099-051700-
...SOUTHEAST COLORADO...

CITY           SKY/WX    TMP DP  RH WIND       PRES   REMARKS
PUEBLO         LGT RAIN  53  52  96 E18       29.91F FOG
LA JUNTA       LGT RAIN  57  53  86 E17       29.90F
LAMAR          LGT RAIN  57  56  96 E9        29.89F
SPRINGFIELD      N/A     54  53  97 E12       29.89F
$$


USA.gov is the U.S. government's official web portal to all federal, state and local government web resources and services.